Location: ??????????
(42.1626°N, 44.1160°E)
Time: 10:26:32
(UTC+00:00)

CZ-2C R/B - Pass Details

Date: 03 March 2021
Orbit: 703 x 908 km, 98.1° (Epoch: 20 April)

Event Time Altitude Azimuth Distance (km) Brightness Sun altitude
Rises 15:37:45 0° 178° (S) 3,514 6.4 -8.5°
Reaches altitude 10° 15:40:14 10° 182° (S) 2,566 5.8 -9.0°
Maximum altitude 15:45:52 55° 260° (W) 1,045 4.1 -10.0°
Drops below altitude 10° 15:51:20 10° 338° (NNW) 2,488 6.0 -11.1°
Sets 15:53:43 0° 343° (NNW) 3,398 6.6 -11.5°
